Asheboro, NC

2:22 AM EDT on August 19, 2017 (GMT -0400)
Asheboro Municipal

Weather History for KHBI - February, 2014

Change the Weather History Date:

Friday, February 28, 2014

  Actual Average Record
Temperature  
Mean Temperature 36 °F -  
Max Temperature 44 °F 57 °F 80 °F (1948)
Min Temperature 28 °F 35 °F 13 °F (1934)
Degree Days  
Heating Degree Days 29    
Moisture  
Dew Point 10 °F    
Average Humidity 35    
Maximum Humidity 44    
Minimum Humidity 28    
Precipitation  
Precipitation 0.00 in - - ()
Sea Level Pressure  
Sea Level Pressure 30.22 in    
Wind  
Wind Speed 3 mph (NE)    
Max Wind Speed 9 mph    
Max Gust Speed 18 mph    
Visibility 10 miles    
Events      
Averages and records for this station are not official NWS values.
T = Trace of Precipitation, MM = Missing Value Source: NWS Daily Summary

Daily Weather History Graph

Daily Weather History Graph

Search for Another Location

Airport or City:

Trip Planner

Search our weather history database for the weather conditions in past years. The results will help you decide how hot, cold, wet, or windy it might be!

Date:

Astronomy

Feb. 28, 2014 Rise Set
Actual Time 6:50 AM EST 6:13 PM EST
Civil Twilight 6:25 AM EST 6:39 PM EST
Nautical Twilight 5:55 AM EST 7:09 PM EST
Astronomical Twilight 5:26 AM EST 7:38 PM EST
Moon 6:03 AM EST (2/28) 5:48 PM EST (2/28)
Length of Visible Light 12h 14m
Length of Day
11h 23m
Waning Crescent, 1% of the Moon is Illuminated
Feb 28
Waning Crescent
Mar 1
New
Mar 8
First Quarter
Mar 16
Full
Mar 23
Last Quarter

Hourly Weather History & Observations

Time (EST) Temp. Windchill Dew Point Humidity Pressure Visibility Wind Dir Wind Speed Gust Speed Precip Events Conditions
12:15 AM 34.7 °F - 7.3 °F 32% 30.02 in 10.0 mi Calm Calm - N/A   Clear
12:35 AM 34.9 °F 30.8 °F 7.0 °F 31% 30.03 in 10.0 mi NNE 4.6 mph - N/A   Clear
12:55 AM 34.3 °F 31.4 °F 6.4 °F 31% 30.04 in 10.0 mi NE 3.5 mph - N/A   Clear
1:15 AM 33.8 °F - 6.8 °F 32% 30.06 in 10.0 mi Calm Calm - N/A   Clear
1:35 AM 33.4 °F - 7.0 °F 33% 30.07 in 10.0 mi Calm Calm - N/A   Clear
1:55 AM 32.9 °F - 7.2 °F 34% 30.08 in 10.0 mi Calm Calm - N/A   Clear
2:15 AM 32.5 °F - 7.0 °F 34% 30.08 in 10.0 mi Calm Calm - N/A   Clear
2:35 AM 32.2 °F - 7.0 °F 35% 30.10 in 10.0 mi Calm Calm - N/A   Clear
2:55 AM 32.0 °F 28.7 °F 7.0 °F 35% 30.10 in 10.0 mi NNE 3.5 mph - N/A   Clear
3:15 AM 31.8 °F 25.4 °F 7.2 °F 36% 30.10 in 10.0 mi NNE 6.9 mph - N/A   Clear
3:35 AM 31.1 °F 27.7 °F 7.5 °F 37% 30.11 in 10.0 mi NNE 3.5 mph - N/A   Clear
3:55 AM 30.9 °F 27.5 °F 7.5 °F 37% 30.12 in 10.0 mi NNE 3.5 mph - N/A   Clear
4:15 AM 30.7 °F 26.0 °F 7.3 °F 37% 30.12 in 10.0 mi NNE 4.6 mph - N/A   Clear
4:35 AM 30.2 °F 25.4 °F 7.2 °F 38% 30.13 in 10.0 mi NNE 4.6 mph - N/A   Clear
4:55 AM 30.0 °F - 7.5 °F 39% 30.14 in 10.0 mi Calm Calm - N/A   Clear
5:15 AM 29.8 °F - 7.0 °F 38% 30.15 in 10.0 mi Calm Calm - N/A   Clear
5:35 AM 29.8 °F 23.9 °F 7.0 °F 38% 30.16 in 10.0 mi NE 5.8 mph - N/A   Clear
5:55 AM 29.3 °F 22.3 °F 7.0 °F 39% 30.17 in 10.0 mi NE 6.9 mph - N/A   Clear
6:15 AM 29.3 °F 23.2 °F 6.8 °F 39% 30.18 in 10.0 mi NE 5.8 mph - N/A   Clear
6:35 AM 28.9 °F 25.2 °F 7.3 °F 40% 30.19 in 10.0 mi NE 3.5 mph - N/A   Clear
6:55 AM 28.6 °F 24.8 °F 7.7 °F 41% 30.21 in 10.0 mi NE 3.5 mph - N/A   Clear
7:15 AM 28.4 °F 20.4 °F 8.1 °F 42% 30.21 in 10.0 mi NE 8.1 mph - N/A   Clear
7:35 AM 28.2 °F - 8.6 °F 44% 30.23 in 10.0 mi Calm Calm - N/A   Clear
7:55 AM 28.4 °F 21.2 °F 8.6 °F 43% 30.24 in 10.0 mi ENE 6.9 mph - N/A   Clear
8:15 AM 28.9 °F 23.9 °F 9.3 °F 44% 30.25 in 10.0 mi ENE 4.6 mph 18.4 mph N/A   Clear
8:35 AM 29.7 °F 24.7 °F 9.9 °F 44% 30.26 in 10.0 mi ENE 4.6 mph - N/A   Clear
8:55 AM 30.0 °F 21.7 °F 10.0 °F 43% 30.27 in 10.0 mi NE 9.2 mph 16.1 mph N/A   Clear
9:15 AM 30.7 °F 23.3 °F 10.2 °F 42% 30.28 in 10.0 mi NE 8.1 mph - N/A   Clear
9:35 AM 31.3 °F 23.9 °F 10.2 °F 42% 30.29 in 10.0 mi NE 8.1 mph - N/A   Clear
9:55 AM 32.2 °F 25.8 °F 10.4 °F 40% 30.29 in 10.0 mi NE 6.9 mph - N/A   Clear
10:15 AM 33.1 °F 26.1 °F 9.7 °F 38% 30.29 in 10.0 mi NE 8.1 mph - N/A   Clear
10:35 AM 33.8 °F 28.6 °F 10.4 °F 38% 30.30 in 10.0 mi ESE 5.8 mph - N/A   Clear
10:55 AM 35.4 °F 31.5 °F 10.8 °F 36% 30.31 in 10.0 mi ESE 4.6 mph - N/A   Clear
11:15 AM 35.4 °F 28.4 °F 10.8 °F 36% 30.32 in 10.0 mi NE 9.2 mph - N/A   Clear
11:35 AM 36.5 °F 31.8 °F 11.7 °F 36% 30.32 in 10.0 mi NNE 5.8 mph - N/A   Clear
11:55 AM 37.6 °F 31.6 °F 11.1 °F 34% 30.30 in 10.0 mi NNE 8.1 mph - N/A   Clear
12:15 PM 37.0 °F 31.6 °F 10.9 °F 34% 30.30 in 10.0 mi NNE 6.9 mph - N/A   Clear
12:35 PM 38.7 °F 34.3 °F 11.1 °F 32% 30.30 in 10.0 mi NE 5.8 mph - N/A   Clear
12:55 PM 40.3 °F 36.3 °F 11.5 °F 31% 30.29 in 10.0 mi NNE 5.8 mph - N/A   Clear
1:15 PM 40.6 °F 37.5 °F 12.4 °F 32% 30.27 in 10.0 mi East 4.6 mph - N/A   Clear
1:35 PM 41.0 °F - 12.0 °F 31% 30.26 in 10.0 mi Calm Calm - N/A   Clear
1:55 PM 41.7 °F 36.7 °F 12.2 °F 30% 30.26 in 10.0 mi East 8.1 mph - N/A   Clear
2:15 PM 42.3 °F 37.3 °F 12.0 °F 29% 30.25 in 10.0 mi NNE 8.1 mph - N/A   Clear
2:35 PM 42.8 °F - 12.0 °F 29% 30.24 in 10.0 mi Calm Calm - N/A   Clear
2:55 PM 43.0 °F 38.8 °F 12.4 °F 29% 30.24 in 10.0 mi ESE 6.9 mph - N/A   Clear
3:15 PM 43.2 °F 40.5 °F 12.2 °F 28% 30.24 in 10.0 mi NE 4.6 mph - N/A   Clear
3:35 PM 44.1 °F 41.5 °F 12.7 °F 28% 30.24 in 10.0 mi NE 4.6 mph - N/A   Clear
3:55 PM 44.1 °F 41.5 °F 12.6 °F 28% 30.23 in 10.0 mi North 4.6 mph - N/A   Clear
4:15 PM 44.2 °F 42.7 °F 12.9 °F 28% 30.24 in 10.0 mi NE 3.5 mph - N/A   Clear
4:35 PM 43.9 °F - 12.6 °F 28% 30.24 in 10.0 mi Calm Calm - N/A   Clear
4:55 PM 43.9 °F - 12.6 °F 28% 30.24 in 10.0 mi Calm Calm - N/A   Clear
5:15 PM 43.7 °F - 12.7 °F 29% 30.24 in 10.0 mi Calm Calm - N/A   Clear
5:35 PM 43.7 °F - 12.9 °F 29% 30.24 in 10.0 mi Calm Calm - N/A   Clear
5:55 PM 43.0 °F - 13.3 °F 30% 30.25 in 10.0 mi Calm Calm - N/A   Clear
6:15 PM 42.3 °F - 13.5 °F 31% 30.25 in 10.0 mi Calm Calm - N/A   Clear
6:35 PM 41.7 °F - 13.6 °F 32% 30.26 in 10.0 mi Calm Calm - N/A   Clear
6:55 PM 40.3 °F - 14.5 °F 35% 30.26 in 10.0 mi Calm Calm - N/A   Clear
7:15 PM 39.9 °F - 13.8 °F 35% 30.27 in 10.0 mi Calm Calm - N/A   Clear
7:35 PM 39.9 °F - 13.6 °F 34% 30.27 in 10.0 mi Calm Calm - N/A   Clear
7:55 PM 39.4 °F - 13.5 °F 35% 30.27 in 10.0 mi Calm Calm - N/A   Clear
8:15 PM 39.2 °F - 12.9 °F 34% 30.27 in 10.0 mi Calm Calm - N/A   Clear
8:35 PM 38.5 °F - 12.9 °F 35% 30.27 in 10.0 mi Calm Calm - N/A   Clear
8:55 PM 38.1 °F - 12.6 °F 35% 30.27 in 10.0 mi Calm Calm - N/A   Clear
9:15 PM 37.4 °F - 12.2 °F 36% 30.28 in 10.0 mi Calm Calm - N/A   Clear
9:35 PM 36.9 °F - 11.7 °F 35% 30.29 in 10.0 mi Calm Calm - N/A   Scattered Clouds
9:55 PM 36.7 °F - 11.7 °F 36% 30.28 in 10.0 mi Calm Calm - N/A   Mostly Cloudy
10:15 PM 36.5 °F - 11.8 °F 36% 30.29 in 10.0 mi Calm Calm - N/A   Mostly Cloudy
10:35 PM 36.1 °F - 11.7 °F 36% 30.30 in 10.0 mi Calm Calm - N/A   Mostly Cloudy
10:55 PM 36.0 °F - 11.8 °F 37% 30.30 in 10.0 mi Calm Calm - N/A   Overcast
11:15 PM 36.0 °F - 11.8 °F 37% 30.30 in 10.0 mi Calm Calm - N/A   Overcast
11:35 PM 36.0 °F - 12.2 °F 38% 30.30 in 10.0 mi Calm Calm - N/A   Overcast
11:55 PM 36.0 °F - 12.0 °F 37% 30.30 in 10.0 mi Calm Calm - N/A   Overcast